Tracking 22124 objects as of 25-Jan-2021
HD Live streaming from Space Station
objects crossing your sky now

WESTFORD NEEDLES

Track WESTFORD NEEDLES now!
10-day predictions
WESTFORD NEEDLES is classified as:


NORAD ID: 21660
Int'l Code: 1963-014FG
Perigee: 2,107.0 km
Apogee: 5,009.5 km
Inclination: 86.5 °
Period: 164.1 minutes
Semi major axis: 9929 km
RCS: 0.1099 m2 (medium)
Launch date: May 9, 1963
Source: United States (US)
Launch site: AIR FORCE WESTERN TEST RANGE (AFWTR)
aabbcc
Your satellite tracking list
Your tracking list is empty




NASA's NSSDC Master Catalog

Two Line Element Set (TLE):
1 21660U 63014FG  21023.64680549 -.00001300  00000-0 -18248+0 0  9997
2 21660  86.5235 162.4282 1461582  46.2078 334.4908  8.77459743892863
Source of the keplerian elements: AFSPC